Powrót do katalogu

STARLINK-30774

AktywnyŁącznośćVLEO
NORAD 58625·PAYLOAD·🇺🇸 United States

Wystrzelony Dec 23, 2023 z Cape Canaveral Space Force Station

Loading…

Następne Przeloty (najbliższe 24 godziny)

TLE

ŚwieżeSource: CelesTrak SupGP

Epoka: Sep 15, 2026, 02:29 UTC

1 58625C 23203H   26258.10395833 -.00009124  00000+0 -33041-3 0  2580
2 58625  43.0000  77.3405 0001493 271.7332 328.3617 15.27589658    10

Śledź STARLINK-30774 w czasie rzeczywistym z AllMySat

Download on the App Store